AirNav   Everest Fuels
 
 966 users online  

VG12 Simpsonville Airport
Rhoadesville, Virginia, USA

GOING TO RHOADESVILLE?


FAA INFORMATION EFFECTIVE 21 MAY 2020

Location

FAA Identifier: VG12
Lat/Long: 38-20-00.4700N 077-51-58.9800W
38-20.007833N 077-51.983000W
38.3334639,-77.8663833
(estimated)
Elevation: 400 ft. / 122 m (estimated)
Variation: 09W (1995)
From city: 5 miles NE of RHOADESVILLE, VA
Time zone: UTC -4 (UTC -5 during Standard Time)
Zip code: 22542

Airport Operations

Airport use: Private use. Permission required prior to landing
Activation date: 02/1998
Control tower: no
ARTCC: WASHINGTON CENTER
FSS: LEESBURG FLIGHT SERVICE STATION
Attendance: UNATNDD
Wind indicator: yes
Segmented circle: no

Airport Communications

WX AWOS-3 at OMH (10 nm SW): 118.075 (540-672-0505)
WX AWOS-3 at CJR (12 nm N): 119.325 (540-727-0523)
WX AWOS-3 at HWY (17 nm NE): 120.350 (540-788-4078)
WX AWOS-3 at GVE (18 nm SW): 120.225 (540-832-2095)
WX AWOS-3 at RMN (20 nm E): 126.325 (540-657-8283)

Nearby radio navigation aids

VOR radial/distance  VOR name  Freq  Var
CSNr186/18.5CASANOVA VORTAC116.3006W
GVEr041/23.5GORDONSVILLE VORTAC115.6006W
BRVr279/24.2BROOKE VORTAC114.5009W
LDNr159/35.1LINDEN VORTAC114.3006W

 
NDB name  Hdg/Dist  Freq  Var  ID
NAILR176/7.535110WMSQ -- ... --.-
SHANNON292/20.023710WEZF . --.. ..-.
CAVERNS137/35.924509WLUA .-.. ..- .-

Airport Services

Runway Information

Runway 1/19

Dimensions: 1900 x 50 ft. / 579 x 15 m
Surface: turf, in good condition
RUNWAY 1  RUNWAY 19
Traffic pattern: leftleft
Displaced threshold: 500 ft.no
Obstructions: 80 ft. trees, 200 ft. from runwaynone

Airport Ownership and Management from official FAA records

Ownership: Privately-owned
Owner: RANDY L SIMPSON
29200 FRIENDSHIP LA
RHOADESVILLE, VA 22542
Phone 540-850-0030
Manager: RANDY L SIMPSON
29200 FRIENDSHIP LA
RHOADESVILLE, VA 22542
Phone 540-850-0030

Airport Operational Statistics

Aircraft based on the field: 1
Single engine airplanes: 1
    

Additional Remarks

FOR CD CTC POTOMAC APCH AT 866-709-4993.

Instrument Procedures

There are no published instrument procedures at VG12.

Some nearby airports with instrument procedures:

KOMH - Orange County Airport (10 nm SW)
KCJR - Culpeper Regional Airport (12 nm N)
KHWY - Warrenton-Fauquier Airport (17 nm NE)
KGVE - Gordonsville Municipal Airport (18 nm SW)
KRMN - Stafford Regional Airport (20 nm E)
 
Loc | Ops | Rwys | IFR | FBO | Links
Com | Nav | Svcs | Stats | Notes
Area around VG12 (Simpsonville Airport)
 
Road maps at: MapQuest Bing Google
 
Aerial photo
No photo
 
Sectional chart

 
Airport distance calculator
Flying to Simpsonville Airport? Find the distance to fly.

From to VG12

Sunrise and sunset
Times for 24-May-2020
 Local
(UTC-4)
 Zulu
(UTC)
Morning civil twilight05:2309:23
Sunrise05:5409:54
Sunset20:2300:23
Evening civil twilight20:5300:53

Current date and time
Zulu (UTC)  25-May-2020 01:32:31
Local (UTC-4)  24-May-2020 21:32:31
 
METAR
KOMH 
10nm SW 
250115Z AUTO 08003KT 10SM OVC011 16/14 A3019 RMK AO2
KCJR 
17nm NW 
250115Z AUTO 00000KT 10SM OVC014 18/15 A3021 RMK AO2 T01750152
KHWY 
17nm NE 
250115Z AUTO 00000KT 10SM OVC017 18/14 A3020 RMK AO2 T01760142
KGVE 
18nm SW 
250115Z AUTO 06003KT 10SM OVC011 17/17 A3018 RMK AO1 T01700168
KLKU 
20nm S 
250115Z AUTO 00000KT 10SM OVC013 16/15 A3023 RMK AO2 T01650150
KRMN 
20nm E 
250115Z AUTO 08004KT 10SM OVC016 17/17 A3024 RMK AO2 T01730173
TAF
KNYG 
29nm E 
2415/2515 VRB06KT 9000 BR OVC008 QNH3020INS BECMG 2418/2420 VRB06KT 8000 BR OVC015 QNH3015INS FM250300 VRB06KT 4800 BR OVC004 QNH3016INS BECMG 2512/2514 VRB06KT 8000 BR OVC015 QNH3022INS T22/2421Z T14/2510Z LAST NO AMENDS UNTIL 2709
KCHO 
30nm SW 
242057Z 2421/2518 VRB04KT P6SM OVC013 FM250200 10005KT P6SM OVC013 FM250600 VRB03KT 4SM BR OVC008 FM251500 09005KT P6SM BKN015
NOTAMs
Click for the latest NOTAMs
NOTAMs are issued by the DoD/FAA and will open in a separate window not controlled by AirNav.

 

 
 

Would you like to see your business listed on this page?

 If your business provides an interesting product or service to pilots, flight crews, aircraft, or users of the Simpsonville Airport, you should consider listing it here.  To start the listing process, click on the button below
 
Add a business
 

Other Pages about Simpsonville Airport

Update a link
 
Copyright © AirNav, LLC. All rights reserved. Privacy Policy  Contact